Location: Unspecified
(37.2150°N, 0.0000°E)
Time: 02:53:07
(UTC+00:00)

ISS - Visible Passes

Search period start: 26 May 2019 00:00
Search period end: 05 June 2019 00:00
Orbit: 408 x 418 km, 51.6° (Epoch: 26 May)

Date Brightness Start Highest point End Pass type
(mag) Time Alt. Az. Time Alt. Az. Time Alt. Az.
26 May -0.6 22:15:32 10° N 22:16:31 11° NNE 22:17:12 10° NNE visible
27 May -0.6 23:01:21 10° NNW 23:02:06 15° NNW 23:02:06 15° NNW visible
28 May -1.2 22:12:11 10° NNW 22:14:12 18° NNE 22:14:12 18° NNE visible
29 May -1.0 21:23:10 10° N 21:24:53 13° NNE 21:26:19 11° NE visible
29 May -0.6 22:58:42 10° NW 22:59:08 13° NW 22:59:08 13° NW visible
30 May -0.7 20:34:47 10° NNE 20:35:05 10° NNE 20:35:23 10° NNE visible
30 May -1.7 22:09:19 10° NW 22:11:16 27° NNW 22:11:16 27° NNW visible
31 May -2.0 21:20:03 10° NNW 21:22:52 24° NNE 21:23:27 23° NE visible
01 Jun -1.3 20:30:53 10° NNW 20:33:08 17° NNE 20:35:23 10° ENE visible
01 Jun -1.8 22:06:47 10° NW 22:08:27 27° WNW 22:08:27 27° WNW visible
02 Jun -3.5 21:17:16 10° NW 21:20:35 59° NE 21:20:41 58° NE visible
03 Jun -2.5 20:27:52 10° NNW 20:30:57 33° NNE 20:32:57 17° E visible
03 Jun -1.2 22:04:47 10° WNW 22:05:47 16° W 22:05:47 16° W visible
04 Jun -3.2 21:14:50 10° WNW 21:18:02 43° SW 21:18:05 43° SW visible
